Eagle, AK

4:05 PM AKDT on September 30, 2016 (GMT -0800)
Eagle

Weather History for PAEG - November, 2012

Change the Weather History Date:

Tuesday, November 13, 2012

  Actual Average (PABN) Record (PABN)
Temperature  
Mean Temperature -20 °F -  
Max Temperature -6 °F 11 °F 26 °F (1997)
Min Temperature -31 °F 4 °F -11 °F (2006)
Degree Days  
Heating Degree Days 84    
Moisture  
Dew Point -27 °F    
Average Humidity 73    
Maximum Humidity 78    
Minimum Humidity 68    
Precipitation  
Precipitation 0.00 in - - ()
Sea Level Pressure  
Sea Level Pressure 30.22 in    
Wind  
Wind Speed 1 mph (SSE)    
Max Wind Speed 12 mph    
Max Gust Speed 21 mph    
Visibility 9 miles    
Events Snow    
Averages and records for this station are not official NWS values.
T = Trace of Precipitation, MM = Missing Value Source: NWS Daily Summary

Daily Weather History Graph

Daily Weather History Graph

Search for Another Location

Airport or City:

Trip Planner

Search our weather history database for the weather conditions in past years. The results will help you decide how hot, cold, wet, or windy it might be!

Date:

Astronomy

Nov. 13, 2012 Rise Set
Actual Time 8:54 AM AKST 3:22 PM AKST
Civil Twilight 7:53 AM AKST 4:23 PM AKST
Nautical Twilight 6:51 AM AKST 5:25 PM AKST
Astronomical Twilight 5:53 AM AKST 6:23 PM AKST
Moon 8:55 AM AKST (11/13) 3:05 PM AKST (11/13)
Length of Visible Light 8h 30m
Length of Day
6h 27m
Waning Crescent, 0% of the Moon is Illuminated
Nov 13
Waning Crescent
Nov 13
New
Nov 20
First Quarter
Nov 28
Full
Dec 6
Last Quarter

Hourly Weather History & Observations

Time (AKST) Temp. Windchill Dew Point Humidity Pressure Visibility Wind Dir Wind Speed Gust Speed Precip Events Conditions
12:53 AM -29.9 °F - - N/A% 30.30 in 10.0 mi Calm Calm - N/A   Clear
1:53 AM -29.9 °F - - N/A% 30.29 in 10.0 mi Calm Calm - N/A   Clear
3:53 AM -31.0 °F - - N/A% 30.28 in 10.0 mi Calm Calm - N/A   Clear
4:07 AM -31.0 °F - - N/A% 30.17 in 9.0 mi Calm Calm - N/A   Scattered Clouds
4:53 AM -31.0 °F - - N/A% 30.30 in 10.0 mi Calm Calm - N/A   Clear
5:10 AM -29.2 °F -41.2 °F - N/A% 30.19 in 10.0 mi WSW 3.5 mph - N/A   Scattered Clouds
5:19 AM -29.2 °F - - N/A% 30.18 in 9.0 mi Calm Calm - N/A   Mostly Cloudy
5:50 AM -29.2 °F - - N/A% 30.19 in 10.0 mi Calm Calm - N/A   Scattered Clouds
5:53 AM -29.0 °F - -36.0 °F 69% 30.31 in 10.0 mi Calm Calm - N/A   Scattered Clouds
6:36 AM -29.2 °F - - N/A% 30.20 in 8.0 mi Calm Calm - N/A   Mostly Cloudy
7:13 AM -29.2 °F -41.2 °F -36.4 °F 68% 30.20 in 10.0 mi South 3.5 mph - N/A   Overcast
7:53 AM -24.0 °F - -29.9 °F 74% 30.34 in 10.0 mi Calm Calm - N/A   Overcast
8:39 AM -18.4 °F - -25.6 °F 70% 30.23 in 2.5 mi Calm Calm - 0.00 in Snow Light Snow
8:46 AM -20.2 °F - -25.6 °F 76% 30.22 in 4.0 mi Calm Calm - 0.00 in Snow Light Snow
8:53 AM -18.9 °F - -25.1 °F 74% 30.34 in 8.0 mi Calm Calm - 0.00 in   Overcast
9:53 AM -16.1 °F - -22.0 °F 74% 30.34 in 6.0 mi Calm Calm - 0.00 in   Haze
10:53 AM -15.0 °F - -20.0 °F 78% 30.34 in 6.0 mi Calm Calm - 0.00 in   Haze
11:38 AM -14.8 °F - -20.2 °F 77% 30.23 in 10.0 mi Calm Calm - N/A   Overcast
11:53 AM -14.1 °F - -20.0 °F 75% 30.34 in 6.0 mi Calm Calm - N/A   Haze
12:46 PM -13.0 °F - -18.4 °F 77% 30.23 in 6.0 mi Calm Calm - N/A   Haze
12:53 PM -13.0 °F - -20.0 °F 71% 30.34 in 10.0 mi Calm Calm - N/A   Overcast
1:53 PM -17.0 °F -27.2 °F -23.1 °F 74% 30.33 in 10.0 mi South 3.5 mph - N/A   Clear
2:53 PM -20.9 °F -31.7 °F -27.0 °F 73% 30.32 in 10.0 mi South 3.5 mph - N/A   Clear
3:45 PM -23.8 °F -35.0 °F -29.2 °F 76% 30.18 in 10.0 mi South 3.5 mph - N/A   Scattered Clouds
3:53 PM -24.0 °F -37.9 °F -31.0 °F 70% 30.29 in 10.0 mi South 4.6 mph - N/A   Scattered Clouds
4:53 PM -27.0 °F - -33.0 °F 73% 30.27 in 10.0 mi Calm Calm - N/A   Clear
5:08 PM -27.4 °F - -32.8 °F 75% 30.14 in 10.0 mi Calm Calm - N/A   Partly Cloudy
5:53 PM -27.9 °F - -35.0 °F 69% 30.24 in 10.0 mi Calm Calm - N/A   Clear
6:05 PM -27.4 °F - -34.6 °F 69% 30.10 in 7.0 mi Calm Calm - N/A   Scattered Clouds
6:25 PM -27.4 °F - -34.6 °F 69% 30.09 in 5.0 mi Calm Calm - N/A   Haze
6:53 PM -27.9 °F - -35.0 °F 69% 30.20 in 8.0 mi Calm Calm - N/A   Scattered Clouds
7:53 PM -29.0 °F - -36.0 °F 69% 30.16 in 10.0 mi Calm Calm - N/A   Clear
8:53 PM -27.0 °F - -33.0 °F 73% 30.11 in 10.0 mi Calm Calm - N/A   Clear
9:53 PM -9.0 °F -27.4 °F -15.0 °F 75% 30.06 in 10.0 mi East 10.4 mph 19.6 mph N/A   Clear
10:53 PM -8.0 °F -27.1 °F -15.0 °F 71% 30.03 in 10.0 mi ESE 11.5 mph 19.6 mph N/A   Clear
11:53 PM -6.0 °F -24.6 °F -13.0 °F 72% 30.01 in 10.0 mi ESE 11.5 mph 20.7 mph N/A   Clear